Location: Unspecified
(35.7250°N, 0.0000°E)
Time: 21:08:13
(UTC+00:00)

Tiros 1 - Pass Details

Date: 03 July 2019
Orbit: 630 x 664 km, 48.4° (Epoch: 21 August)

Event Time Altitude Azimuth Distance (km) Brightness Sun altitude
Rises 20:03:36 0° 271° (W) 2,976 11.6 -8.3°
Reaches altitude 10° 20:06:18 10° 284° (WNW) 2,061 11.0 -8.7°
Maximum altitude 20:10:15 25° 340° (NNW) 1,299 9.5 -9.4°
Drops below altitude 10° 20:14:11 10° 37° (NE) 2,047 9.7 -10.0°
Sets 20:16:52 0° 50° (NE) 2,952 10.4 -10.4°
